| time (UTC) | temp F | wind direction | speed MPH | gust MPH | rain 1hr in | rain 24hr in | rain mn in | humidity % | barometer mb |
| 20260508123410 | 71 | 42 | 2.0 | 7.0 | 0.00 | 0.00 | 0.00 | 50 | 1016.8 |
| 20260508121910 | 71 | 304 | 1.0 | 4.0 | 0.00 | 0.00 | 0.00 | 49 | 1017.0 |
| 20260508120410 | 72 | 265 | 1.0 | 3.0 | 0.00 | 0.00 | 0.00 | 49 | 1017.1 |
| 20260508114912 | 69 | 72 | 4.0 | 7.0 | 0.00 | 0.00 | 0.00 | 54 | 1017.1 |
| 20260508110412 | 66 | 34 | 3.0 | 6.0 | 0.00 | 0.00 | 0.00 | 55 | 1017.2 |
| 20260508104912 | 67 | 65 | 1.0 | 6.0 | 0.00 | 0.00 | 0.00 | 55 | 1017.3 |
| 20260508103412 | 65 | 57 | 4.0 | 9.0 | 0.00 | 0.00 | 0.00 | 57 | 1017.4 |
| 20260508101911 | 65 | 34 | 5.0 | 9.0 | 0.00 | 0.00 | 0.00 | 58 | 1017.5 |
| 20260508094911 | 64 | 63 | 5.0 | 12.0 | 0.00 | 0.00 | 0.00 | 59 | 1017.6 |
| 20260508093411 | 65 | 51 | 6.0 | 9.0 | 0.00 | 0.00 | 0.00 | 59 | 1018.0 |
| 20260508091911 | 64 | 67 | 3.0 | 13.0 | 0.00 | 0.00 | 0.00 | 59 | 1018.1 |
| 20260508090411 | 63 | 163 | 3.0 | 10.0 | 0.00 | 0.00 | 0.00 | 62 | 1018.1 |
| 20260508084911 | 63 | 76 | 3.0 | 5.0 | 0.00 | 0.00 | 0.00 | 62 | 1018.3 |
| 20260508083411 | 62 | 52 | 5.0 | 7.0 | 0.00 | 0.00 | 0.00 | 62 | 1018.1 |
| 20260508081910 | 61 | 43 | 4.0 | 8.0 | 0.00 | 0.00 | 0.00 | 64 | 1018.1 |
| 20260508080410 | 60 | 350 | 1.0 | 3.0 | 0.00 | 0.00 | 0.00 | 67 | 1018.1 |
| 20260508074910 | 59 | 360 | 1.0 | 3.0 | 0.00 | 0.00 | 0.00 | 68 | 1018.3 |
| 20260508073410 | 58 | 338 | 1.0 | 4.0 | 0.00 | 0.00 | 0.00 | 71 | 1017.9 |
| 20260508071910 | 57 | 24 | 2.0 | 3.0 | 0.00 | 0.00 | 0.00 | 71 | 1017.8 |
| 20260508070410 | 56 | 51 | 1.0 | 3.0 | 0.00 | 0.00 | 0.00 | 71 | 1017.9 |
| 20260508064910 | 55 | 333 | 1.0 | 2.0 | 0.00 | 0.00 | 0.00 | 74 | 1017.8 |
| 20260508063410 | 55 | 285 | 1.0 | 4.0 | 0.00 | 0.00 | 0.00 | 75 | 1017.8 |
| 20260508061910 | 54 | 334 | 1.0 | 2.0 | 0.00 | 0.00 | 0.00 | 77 | 1017.5 |
| 20260508060410 | 53 | 129 | 1.0 | 2.0 | 0.00 | 0.00 | 0.00 | 81 | 1017.5 |
| 20260508054909 | 51 | 135 | 1.0 | 2.0 | 0.00 | 0.00 | 0.00 | 82 | 1017.4 |
| 20260508053409 | 51 | 231 | 0.0 | 0.0 | 0.00 | 0.00 | 0.00 | 83 | 1017.3 |
| 20260508051909 | 49 | 231 | 2.0 | 2.0 | 0.00 | 0.00 | 0.00 | 85 | 1017.3 |
| 20260508050414 | 48 | 209 | 0.0 | 1.0 | 0.00 | 0.00 | 0.00 | 87 | 1017.2 |
| 20260508044914 | 47 | 237 | 1.0 | 4.0 | 0.00 | 0.00 | 0.00 | 89 | 1017.2 |
| 20260508043414 | 47 | 217 | 2.0 | 3.0 | 0.00 | 0.00 | 0.00 | 88 | 1017.0 |
| 20260508041914 | 46 | 219 | 3.0 | 4.0 | 0.00 | 0.00 | 0.00 | 89 | 1016.9 |
| 20260508040414 | 45 | 176 | 0.0 | 1.0 | 0.00 | 0.00 | 0.00 | 91 | 1016.9 |
| 20260508034913 | 45 | 175 | 1.0 | 2.0 | 0.00 | 0.00 | 0.00 | 89 | 1016.8 |
| 20260508033413 | 45 | 173 | 1.0 | 2.0 | 0.00 | 0.00 | 0.00 | 90 | 1016.8 |
| 20260508031913 | 45 | 173 | 0.0 | 0.0 | 0.00 | 0.00 | 0.00 | 90 | 1016.7 |
| 20260508030413 | 46 | 173 | 0.0 | 0.0 | 0.00 | 0.00 | 0.00 | 89 | 1016.7 |
| 20260508014912 | 46 | 154 | 1.0 | 4.0 | 0.00 | 0.00 | 0.00 | 89 | 1016.7 |
| 20260508013412 | 46 | 156 | 0.0 | 1.0 | 0.00 | 0.00 | 0.00 | 87 | 1016.7 |
| 20260508011912 | 47 | 156 | 0.0 | 1.0 | 0.00 | 0.00 | 0.00 | 86 | 1016.6 |
| 20260508010412 | 48 | 156 | 0.0 | 1.0 | 0.00 | 0.00 | 0.00 | 84 | 1016.6 |
| 20260508004912 | 49 | 130 | 0.0 | 3.0 | 0.00 | 0.00 | 0.00 | 85 | 1016.7 |
| 20260508003412 | 48 | 126 | 0.0 | 2.0 | 0.00 | 0.00 | 0.00 | 83 | 1016.8 |
| 20260508001912 | 50 | 126 | 1.0 | 2.0 | 0.00 | 0.00 | 0.00 | 81 | 1016.8 |
| 20260508000412 | 49 | 126 | 0.0 | 2.0 | 0.00 | 0.00 | 0.00 | 83 | 1016.8 |
| 20260507234912 | 50 | 97 | 0.0 | 0.0 | 0.00 | 0.00 | 0.00 | 81 | 1016.8 |
| 20260507233412 | 50 | 58 | 0.0 | 1.0 | 0.00 | 0.00 | 0.00 | 81 | 1016.8 |
| 20260507231911 | 50 | 57 | 0.0 | 2.0 | 0.00 | 0.00 | 0.00 | 80 | 1017.1 |
| 20260507230411 | 51 | 58 | 0.0 | 1.0 | 0.00 | 0.00 | 0.00 | 79 | 1017.0 |
| 20260507224911 | 53 | 58 | 0.0 | 0.0 | 0.00 | 0.00 | 0.00 | 76 | 1017.1 |
| 20260507223412 | 53 | 57 | 0.0 | 2.0 | 0.00 | 0.00 | 0.00 | 74 | 1017.1 |
| 20260507221911 | 55 | 57 | 0.0 | 3.0 | 0.00 | 0.00 | 0.00 | 72 | 1017.2 |
| 20260507220411 | 55 | 54 | 2.0 | 3.0 | 0.00 | 0.00 | 0.00 | 70 | 1017.0 |
| 20260507211911 | 57 | 54 | 2.0 | 4.0 | 0.00 | 0.00 | 0.00 | 67 | 1016.8 |
| 20260507210411 | 57 | 74 | 1.0 | 4.0 | 0.00 | 0.00 | 0.00 | 66 | 1016.6 |
| 20260507204911 | 58 | 78 | 2.0 | 4.0 | 0.00 | 0.00 | 0.00 | 66 | 1016.5 |
| 20260507203411 | 58 | 79 | 4.0 | 8.0 | 0.00 | 0.00 | 0.00 | 67 | 1016.2 |
| 20260507201911 | 59 | 93 | 4.0 | 9.0 | 0.00 | 0.00 | 0.00 | 67 | 1015.9 |
| 20260507200411 | 60 | 34 | 0.0 | 3.0 | 0.00 | 0.00 | 0.00 | 62 | 1015.6 |
| 20260507194915 | 61 | 306 | 3.0 | 6.0 | 0.00 | 0.00 | 0.00 | 61 | 1015.2 |
| 20260507193415 | 61 | 236 | 5.0 | 13.0 | 0.00 | 0.00 | 0.00 | 63 | 1014.9 |
| 20260507191915 | 61 | 251 | 3.0 | 6.0 | 0.00 | 0.00 | 0.00 | 64 | 1014.5 |
| 20260507190415 | 62 | 305 | 3.0 | 5.0 | 0.00 | 0.00 | 0.00 | 63 | 1014.4 |
| 20260507184915 | 62 | 244 | 5.0 | 10.0 | 0.00 | 0.00 | 0.00 | 64 | 1013.8 |
| 20260507183414 | 62 | 227 | 4.0 | 9.0 | 0.00 | 0.00 | 0.00 | 63 | 1013.5 |
| 20260507181914 | 64 | 275 | 2.0 | 3.0 | 0.00 | 0.00 | 0.00 | 62 | 1013.4 |
| 20260507180414 | 64 | 218 | 2.0 | 7.0 | 0.00 | 0.00 | 0.00 | 63 | 1013.3 |
| 20260507174914 | 64 | 232 | 4.0 | 13.0 | 0.00 | 0.00 | 0.00 | 65 | 1012.9 |
| 20260507173414 | 65 | 249 | 3.0 | 9.0 | 0.00 | 0.00 | 0.00 | 67 | 1012.8 |
| 20260507171913 | 65 | 262 | 4.0 | 9.0 | 0.00 | 0.00 | 0.00 | 65 | 1012.7 |
| 20260507170413 | 67 | 260 | 5.0 | 8.0 | 0.00 | 0.00 | 0.00 | 64 | 1012.8 |
| 20260507164913 | 68 | 231 | 8.0 | 12.0 | 0.00 | 0.00 | 0.00 | 61 | 1012.8 |
| 20260507163413 | 69 | 166 | 5.0 | 9.0 | 0.00 | 0.00 | 0.00 | 60 | 1012.8 |
| 20260507161913 | 69 | 178 | 4.0 | 10.0 | 0.00 | 0.00 | 0.00 | 59 | 1012.7 |
| 20260507160413 | 70 | 133 | 3.0 | 9.0 | 0.00 | 0.00 | 0.00 | 58 | 1012.8 |
| 20260507154913 | 70 | 231 | 3.0 | 10.0 | 0.00 | 0.00 | 0.00 | 57 | 1012.4 |
| 20260507153413 | 71 | 165 | 3.0 | 11.0 | 0.00 | 0.00 | 0.00 | 56 | 1012.4 |
| 20260507151913 | 71 | 250 | 6.0 | 10.0 | 0.00 | 0.00 | 0.00 | 57 | 1012.3 |
| 20260507150413 | 71 | 279 | 3.0 | 13.0 | 0.00 | 0.00 | 0.00 | 57 | 1012.3 |
| 20260507144912 | 71 | 225 | 4.0 | 8.0 | 0.00 | 0.00 | 0.00 | 59 | 1012.3 |
| 20260507143412 | 70 | 143 | 2.0 | 11.0 | 0.00 | 0.00 | 0.00 | 58 | 1012.4 |
| 20260507141912 | 70 | 271 | 5.0 | 11.0 | 0.00 | 0.00 | 0.00 | 57 | 1012.3 |
| 20260507140412 | 70 | 218 | 5.0 | 11.0 | 0.00 | 0.00 | 0.00 | 57 | 1012.4 |
| 20260507134912 | 70 | 285 | 5.0 | 12.0 | 0.00 | 0.00 | 0.00 | 58 | 1012.6 |
| 20260507133412 | 70 | 243 | 6.0 | 10.0 | 0.00 | 0.00 | 0.00 | 59 | 1012.7 |
| 20260507131912 | 68 | 247 | 5.0 | 10.0 | 0.00 | 0.00 | 0.00 | 61 | 1012.8 |